Location: Unspecified
(0.0000°N, 0.0000°E)
Time: 09:44:19
(UTC+00:00)

Vanguard 2 - Pass Details

Date: 08 October 2022
Orbit: 553 x 2933 km, 32.9° (Epoch: 29 November)

Event Time Altitude Azimuth Distance (km) Brightness Sun altitude
Rises 18:43:20 0° 308° (NW) 6,531 13.0 -13.9°
Reaches altitude 10° 18:47:28 10° 309° (NW) 5,650 12.6 -14.9°
Maximum altitude 19:05:36 82° 36° (NE) 2,828 10.2 -19.4°
Enters shadow 19:18:24 17° 122° (ESE) 4,319 10.9 -22.6°
